sat.trackr.live / text

‹ back to catalog

STARLINK-5762

NORAD 55590 · 2023-020X

PAYLOAD ACTIVE UNKNOWN

§ Identity

Operator
Country
US
Launch date
2023-02-12
Launch site
AFETR
Launch vehicle
Mass (kg)
RCS (m²)

Purposes: comms

External: N2YO · Heavens-Above · Gunter

§ Orbital elements

Epoch: 2026-05-25T03:02:04.042752Z

Period
94.27 min
Inclination
43.0052°
Eccentricity
0.0001700
Mean motion
15.27575538 rev/d
Perigee alt
481.9 km
Apogee alt
484.2 km
Semi-major
6,861.2 km
B*
2.3174e-6
RAAN
293.4596°
Arg perigee
266.8217°
Mean anomaly
93.2440°
Rev number
18,060

§ Raw data

STARLINK-57621 55590U 23020X   26145.12643568 -.00000199  00000+0  23174-5 0  99952 55590  43.0052 293.4596 0001700 266.8217  93.2440 15.27575538180603

JSON: /api/v1/satellites/55590 · /tle

For live sub-satellite position, see the globe view (requires WebGL).

§ Visibility from observer

Set your observer location to see the next 7 days of passes ≥ 10°. The values pass through the URL so the page stays shareable.

No JS? Fill the form by hand. The geolocation button needs JavaScript.